GW1125 Weather Reports


time (UTC)temp
C
wind
direction
speed
KPH
gust
KPH
rain 1hr
cm
rain 24hr
cm
rain mn
cm
humidity
%
barometer
mb
20260509051617 11 0.0 0.0 0.00 0.00 0.00 83 1021.8
20260509051117 11 0.0 0.0 0.00 0.00 0.00 82 1021.7
20260509050618 11 0.0 0.0 0.00 0.00 0.00 82 1021.6
20260509050117 11 0.0 0.0 0.00 0.00 0.00 82 1021.6
20260509045617 11 0.0 0.0 0.00 0.00 0.00 82 1021.8
20260509045117 11 0.0 0.0 0.00 0.00 0.00 82 1021.7
20260509044637 11 0.0 0.0 0.00 0.00 0.00 82 1021.6
20260509044117 11 0.0 0.0 0.00 0.00 0.00 81 1021.6
20260509043618 11 0.0 0.0 0.00 0.00 0.00 80 1021.5
20260509043117 12 0.0 0.0 0.00 0.00 0.00 79 1021.5
20260509042617 11 78 1.6 4.8 0.00 0.00 0.00 79 1021.6
20260509042117 11 0.0 0.0 0.00 0.00 0.00 80 1021.3
20260509041617 12 0.0 0.0 0.00 0.00 0.00 78 1021.5
20260509041117 12 0.0 0.0 0.00 0.00 0.00 78 1021.3
20260509040616 12 0.0 0.0 0.00 0.00 0.00 77 1021.2
20260509040118 12 0.0 0.0 0.00 0.00 0.00 77 1021.2
20260509035638 12 97 0.0 1.6 0.00 0.00 0.00 75 1021.1
20260509035137 12 141 1.6 4.8 0.00 0.00 0.00 75 1021.1
20260509034637 12 0.0 0.0 0.00 0.00 0.00 74 1021.0
20260509034117 12 0.0 0.0 0.00 0.00 0.00 74 1021.0
20260509033617 12 0.0 0.0 0.00 0.00 0.00 74 1021.0
20260509033117 13 0.0 0.0 0.00 0.00 0.00 73 1020.8
20260509032617 13 0.0 0.0 0.00 0.00 0.00 72 1020.7
20260509032116 13 0.0 0.0 0.00 0.00 0.00 71 1020.8
20260509031618 13 0.0 0.0 0.00 0.00 0.00 69 1020.7
20260509031118 13 89 0.0 1.6 0.00 0.00 0.00 69 1020.5
20260509030617 13 0.0 0.0 0.00 0.00 0.00 69 1020.4
20260509030117 14 105 0.0 1.6 0.00 0.00 0.00 69 1020.6
20260509025617 14 91 0.0 1.6 0.00 0.00 0.00 67 1020.4
20260509025117 14 28 0.0 3.2 0.00 0.00 0.00 67 1020.4
20260509024617 14 0.0 0.0 0.00 0.00 0.00 67 1020.3
20260509024137 14 81 1.6 3.2 0.00 0.00 0.00 65 1020.3
20260509023616 15 94 1.6 4.8 0.00 0.00 0.00 65 1020.2
20260509023117 15 83 1.6 3.2 0.00 0.00 0.00 64 1020.3
20260509022617 15 117 0.0 3.2 0.00 0.00 0.00 64 1020.2
20260509022117 15 0.0 0.0 0.00 0.00 0.00 63 1020.2
20260509021617 15 0.0 0.0 0.00 0.00 0.00 63 1020.1
20260509021117 15 81 1.6 3.2 0.00 0.00 0.00 61 1020.2
20260509020617 15 0.0 0.0 0.00 0.00 0.00 62 1020.1
20260509020137 15 0.0 0.0 0.00 0.00 0.00 62 1020.2
20260509015617 15 125 3.2 4.8 0.00 0.00 0.00 60 1020.3
20260509015117 15 122 1.6 1.6 0.00 0.00 0.00 61 1020.2
20260509014618 15 0.0 0.0 0.00 0.00 0.00 60 1020.1
20260509014118 16 96 0.0 1.6 0.00 0.00 0.00 59 1020.2
20260509013617 16 80 0.0 1.6 0.00 0.00 0.00 58 1020.1
20260509013138 16 79 3.2 6.4 0.00 0.00 0.00 57 1020.2
20260509012617 16 192 1.6 6.4 0.00 0.00 0.00 58 1020.2
20260509012117 16 118 1.6 3.2 0.00 0.00 0.00 57 1020.1
20260509011617 17 83 1.6 3.2 0.00 0.00 0.00 57 1020.3
20260509011117 16 105 0.0 1.6 0.00 0.00 0.00 56 1020.1
20260509010617 16 107 0.0 1.6 0.00 0.00 0.00 58 1020.2
20260509010118 16 0.0 0.0 0.00 0.00 0.00 59 1020.2
20260509005637 16 150 1.6 4.8 0.00 0.00 0.00 58 1020.3
20260509005117 16 0.0 0.0 0.00 0.00 0.00 58 1020.3
20260509004637 16 94 0.0 1.6 0.00 0.00 0.00 58 1020.3
20260509004117 16 109 1.6 4.8 0.00 0.00 0.00 56 1020.3
20260509003617 17 256 3.2 4.8 0.00 0.00 0.00 55 1020.2
20260509003117 16 64 1.6 3.2 0.00 0.00 0.00 56 1020.2
20260509002617 16 93 1.6 3.2 0.00 0.00 0.00 57 1020.2
20260509002116 16 75 0.0 1.6 0.00 0.00 0.00 56 1020.4
20260509001616 16 102 1.6 3.2 0.00 0.00 0.00 56 1020.3
20260509001117 17 97 0.0 1.6 0.00 0.00 0.00 54 1020.2
20260509000617 17 129 1.6 4.8 0.00 0.00 0.00 53 1020.2
20260509000157 17 101 0.0 1.6 0.00 0.00 0.00 54 1020.2
20260508235617 17 358 3.2 6.4 0.00 0.00 0.00 52 1020.0
20260508235157 17 71 3.2 4.8 0.00 0.00 0.00 51 1020.0
20260508234617 18 96 0.0 1.6 0.00 0.00 0.00 48 1020.2
20260508234117 17 128 1.6 4.8 0.00 0.00 0.00 51 1020.1
20260508233617 16 174 1.6 3.2 0.00 0.00 0.00 52 1020.0
20260508233138 17 66 3.2 4.8 0.00 0.00 0.00 52 1020.1
20260508232617 16 48 4.8 9.7 0.00 0.00 0.00 53 1020.2
20260508232117 17 66 1.6 4.8 0.00 0.00 0.00 53 1020.0
20260508231617 17 65 0.0 3.2 0.00 0.00 0.00 52 1020.0
20260508231117 17 0.0 0.0 0.00 0.00 0.00 52 1020.1
20260508230657 16 0.0 0.0 0.00 0.00 0.00 54 1020.2
20260508230117 16 238 1.6 4.8 0.00 0.00 0.00 54 1020.3
20260508225617 16 101 0.0 3.2 0.00 0.00 0.00 55 1020.2
20260508225117 16 102 0.0 1.6 0.00 0.00 0.00 54 1020.2
20260508224637 16 137 1.6 4.8 0.00 0.00 0.00 52 1020.3
20260508224118 16 83 0.0 1.6 0.00 0.00 0.00 52 1020.4
20260508223637 17 348 0.0 9.7 0.00 0.00 0.00 48 1020.4
20260508223117 16 142 0.0 3.2 0.00 0.00 0.00 53 1020.3
20260508222617 17 103 1.6 3.2 0.00 0.00 0.00 52 1020.2
20260508222117 16 131 3.2 9.7 0.00 0.00 0.00 52 1020.3
20260508221637 16 116 1.6 3.2 0.00 0.00 0.00 54 1020.2
20260508221117 16 167 3.2 4.8 0.00 0.00 0.00 54 1020.2
20260508220617 16 83 3.2 6.4 0.00 0.00 0.00 52 1020.1
20260508220117 16 87 0.0 1.6 0.00 0.00 0.00 55 1020.2
20260508215637 16 92 0.0 1.6 0.00 0.00 0.00 55 1020.3
20260508215118 16 308 1.6 9.7 0.00 0.00 0.00 55 1020.4
20260508214637 16 135 0.0 1.6 0.00 0.00 0.00 53 1020.2
20260508214117 17 98 1.6 4.8 0.00 0.00 0.00 54 1020.3
20260508213617 16 160 3.2 4.8 0.00 0.00 0.00 53 1020.4
20260508213117 16 90 1.6 4.8 0.00 0.00 0.00 54 1020.3
20260508212617 15 108 1.6 6.4 0.00 0.00 0.00 56 1020.4
20260508212137 16 105 3.2 4.8 0.00 0.00 0.00 55 1020.5
20260508211636 16 109 0.0 1.6 0.00 0.00 0.00 55 1020.3
20260508211157 16 97 3.2 4.8 0.00 0.00 0.00 53 1020.4
20260508210618 16 144 1.6 6.4 0.00 0.00 0.00 55 1020.3
20260508210117 16 126 1.6 3.2 0.00 0.00 0.00 56 1020.1
20260508205617 16 148 3.2 11.3 0.00 0.00 0.00 53 1020.0
20260508205117 16 93 1.6 4.8 0.00 0.00 0.00 56 1020.2
20260508204617 16 84 1.6 4.8 0.00 0.00 0.00 58 1020.0
20260508204117 16 135 3.2 4.8 0.00 0.00 0.00 55 1020.2
20260508203617 15 127 3.2 9.7 0.00 0.00 0.00 55 1020.0
20260508203117 15 141 0.0 1.6 0.00 0.00 0.00 58 1020.1
20260508202617 15 140 1.6 3.2 0.00 0.00 0.00 57 1020.1
20260508202117 15 82 1.6 6.4 0.00 0.00 0.00 59 1020.1
20260508201618 15 101 1.6 4.8 0.00 0.00 0.00 59 1020.1
20260508201137 15 145 1.6 6.4 0.00 0.00 0.00 58 1020.0
20260508200617 15 117 1.6 4.8 0.00 0.00 0.00 60 1020.0
20260508200257 15 115 1.6 4.8 0.00 0.00 0.00 62 1020.1
20260508195617 14 111 1.6 3.2 0.00 0.00 0.00 61 1020.1
20260508195117 14 130 3.2 6.4 0.00 0.00 0.00 59 1019.9
20260508194637 14 110 1.6 1.6 0.00 0.00 0.00 61 1020.1
20260508194118 14 135 1.6 4.8 0.00 0.00 0.00 62 1019.9
20260508193638 13 113 1.6 3.2 0.00 0.00 0.00 62 1020.0
20260508193118 13 116 3.2 9.7 0.00 0.00 0.00 63 1020.0
20260508192617 13 0.0 0.0 0.00 0.00 0.00 64 1020.2
20260508192117 14 84 0.0 3.2 0.00 0.00 0.00 62 1020.0
20260508191617 14 118 0.0 3.2 0.00 0.00 0.00 64 1020.2
20260508191117 13 94 0.0 1.6 0.00 0.00 0.00 66 1020.2
20260508190637 13 96 0.0 1.6 0.00 0.00 0.00 66 1020.2
20260508190117 13 106 1.6 4.8 0.00 0.00 0.00 67 1020.3
20260508185617 13 91 1.6 4.8 0.00 0.00 0.00 67 1020.1
20260508185118 13 85 1.6 1.6 0.00 0.00 0.00 68 1020.0
20260508184617 12 123 1.6 4.8 0.00 0.00 0.00 69 1020.1
20260508184117 12 101 0.0 1.6 0.00 0.00 0.00 72 1020.0
20260508183637 12 145 1.6 11.3 0.00 0.00 0.00 71 1020.3
20260508183117 12 115 1.6 6.4 0.00 0.00 0.00 72 1020.2
20260508182617 12 112 0.0 1.6 0.00 0.00 0.00 74 1020.1
20260508182117 12 177 1.6 4.8 0.00 0.00 0.00 72 1020.0
20260508181617 12 107 0.0 3.2 0.00 0.00 0.00 72 1020.0
20260508181117 12 141 3.2 4.8 0.00 0.00 0.00 72 1019.8
20260508180617 12 96 0.0 3.2 0.00 0.00 0.00 74 1020.0
20260508180217 12 122 0.0 3.2 0.00 0.00 0.00 73 1019.7
20260508175638 12 0.0 0.0 0.00 0.00 0.00 75 1019.6
20260508175117 12 146 1.6 4.8 0.00 0.00 0.00 74 1019.8
20260508174617 12 131 4.8 9.7 0.00 0.00 0.00 73 1019.6
20260508174117 12 165 1.6 3.2 0.00 0.00 0.00 75 1019.7
20260508173617 12 127 0.0 3.2 0.00 0.00 0.00 75 1019.6
20260508173117 11 0.0 0.0 0.00 0.00 0.00 77 1019.5
20260508172617 12 115 1.6 3.2 0.00 0.00 0.00 75 1019.2
20260508172138 12 156 3.2 4.8 0.00 0.00 0.00 75 1019.2
20260508171617 12 164 1.6 9.7 0.00 0.00 0.00 74 1019.1
20260508171117 12 0.0 0.0 0.00 0.00 0.00 77 1019.1
20260508170617 11 112 1.6 1.6 0.00 0.00 0.00 76 1019.1
20260508170117 11 99 0.0 1.6 0.00 0.00 0.00 78 1018.9
20260508165657 11 0.0 0.0 0.00 0.00 0.00 78 1018.9
20260508165117 11 0.0 0.0 0.00 0.00 0.00 80 1018.9
20260508164617 11 0.0 0.0 0.00 0.00 0.00 80 1018.9
20260508164117 11 0.0 0.0 0.00 0.00 0.00 80 1018.9
20260508163638 11 108 0.0 1.6 0.00 0.00 0.00 79 1018.9
20260508163117 11 0.0 0.0 0.00 0.00 0.00 80 1018.8
20260508162657 10 0.0 0.0 0.00 0.00 0.00 80 1018.8
20260508162117 11 117 1.6 4.8 0.00 0.00 0.00 79 1018.7
20260508161617 11 140 3.2 4.8 0.00 0.00 0.00 80 1018.7
20260508161117 11 106 0.0 1.6 0.00 0.00 0.00 81 1018.7
20260508160617 11 116 0.0 1.6 0.00 0.00 0.00 82 1018.7
20260508160117 11 76 0.0 1.6 0.00 0.00 0.00 81 1018.9
20260508155617 11 0.0 0.0 0.00 0.00 0.00 82 1018.9
20260508155118 11 0.0 0.0 0.00 0.00 0.00 82 1019.0
20260508154618 10 0.0 0.0 0.00 0.00 0.00 83 1018.9
20260508154117 10 0.0 0.0 0.00 0.00 0.00 82 1018.8
20260508153617 10 96 0.0 1.6 0.00 0.00 0.00 83 1019.1
20260508153117 10 0.0 0.0 0.00 0.00 0.00 85 1019.0
20260508152617 10 156 1.6 6.4 0.00 0.00 0.00 85 1019.2
20260508152117 10 117 0.0 3.2 0.00 0.00 0.00 86 1019.2
20260508151617 10 0.0 0.0 0.00 0.00 0.00 88 1019.2
20260508151117 10 139 0.0 1.6 0.00 0.00 0.00 88 1019.2
20260508150617 10 0.0 0.0 0.00 0.00 0.00 88 1019.1
20260508150137 10 0.0 0.0 0.00 0.00 0.00 88 1019.0
20260508145617 10 111 1.6 3.2 0.00 0.00 0.00 88 1019.0
20260508145117 9 0.0 0.0 0.00 0.00 0.00 89 1019.1
20260508144617 9 102 0.0 1.6 0.00 0.00 0.00 90 1019.0
20260508144117 9 0.0 0.0 0.00 0.00 0.00 90 1018.9
20260508143617 9 0.0 0.0 0.00 0.00 0.00 90 1018.9
20260508143117 9 154 1.6 3.2 0.00 0.00 0.00 90 1018.7
20260508142617 9 0.0 0.0 0.00 0.00 0.00 90 1018.7
20260508142116 9 118 1.6 3.2 0.00 0.00 0.00 90 1018.6
20260508141617 9 0.0 0.0 0.00 0.00 0.00 91 1018.5
20260508141137 9 0.0 0.0 0.00 0.00 0.00 91 1018.4
20260508140617 8 148 0.0 3.2 0.00 0.00 0.00 92 1018.3
20260508140117 8 106 0.0 1.6 0.00 0.00 0.00 92 1018.2
20260508135617 8 0.0 0.0 0.00 0.00 0.00 92 1018.0
20260508135117 8 0.0 0.0 0.00 0.00 0.00 92 1018.1
20260508134617 8 109 0.0 1.6 0.00 0.00 0.00 92 1017.9
20260508134117 8 0.0 0.0 0.00 0.00 0.00 92 1017.8
20260508133617 8 0.0 0.0 0.00 0.00 0.00 92 1017.7
20260508133118 8 0.0 0.0 0.00 0.00 0.00 93 1017.8
20260508132617 8 103 0.0 1.6 0.00 0.00 0.00 92 1017.6
20260508132118 8 0.0 0.0 0.00 0.00 0.00 93 1017.6
20260508131617 8 0.0 0.0 0.00 0.00 0.00 93 1017.5
20260508131117 8 0.0 0.0 0.00 0.00 0.00 93 1017.4
20260508130637 8 0.0 0.0 0.00 0.00 0.00 93 1017.4
20260508130157 8 0.0 0.0 0.00 0.00 0.00 94 1017.3
20260508125717 8 0.0 0.0 0.00 0.00 0.00 94 1017.2
20260508125117 8 0.0 0.0 0.00 0.00 0.00 94 1017.2
20260508124637 8 0.0 0.0 0.00 0.00 0.00 94 1017.2
20260508124117 8 0.0 0.0 0.00 0.00 0.00 94 1017.2
20260508123617 8 0.0 0.0 0.00 0.00 0.00 93 1017.1
20260508123117 8 0.0 0.0 0.00 0.00 0.00 93 1017.1
20260508122637 8 0.0 0.0 0.00 0.00 0.00 93 1017.1
20260508122117 8 0.0 0.0 0.00 0.00 0.00 93 1017.0
20260508121617 8 0.0 0.0 0.00 0.00 0.00 93 1016.8
20260508121117 8 0.0 0.0 0.00 0.00 0.00 93 1016.8
20260508120616 8 0.0 0.0 0.00 0.00 0.00 93 1016.9
20260508120137 8 0.0 0.0 0.00 0.00 0.00 93 1016.6
20260508115638 8 0.0 0.0 0.00 0.00 0.00 92 1016.7
20260508115118 8 0.0 0.0 0.00 0.00 0.00 92 1016.6
20260508114617 8 0.0 0.0 0.00 0.00 0.00 93 1016.7
20260508114117 8 0.0 0.0 0.00 0.00 0.00 92 1016.6
20260508113617 8 0.0 0.0 0.00 0.00 0.00 93 1016.6
20260508113117 8 0.0 0.0 0.00 0.00 0.00 93 1016.5
20260508112617 8 0.0 0.0 0.00 0.00 0.00 93 1016.3
20260508112117 8 0.0 0.0 0.00 0.00 0.00 94 1016.5
20260508111618 8 0.0 0.0 0.00 0.00 0.00 94 1016.5
20260508111117 8 0.0 0.0 0.00 0.00 0.00 94 1016.5
20260508110618 8 0.0 0.0 0.00 0.00 0.00 94 1016.4
20260508110118 8 0.0 0.0 0.00 0.00 0.00 94 1016.3
20260508105617 8 0.0 0.0 0.00 0.00 0.00 95 1016.2
20260508105117 8 0.0 0.0 0.00 0.00 0.00 95 1016.0
20260508104617 8 0.0 0.0 0.00 0.00 0.00 95 1016.0
20260508104117 8 0.0 0.0 0.00 0.00 0.00 95 1016.2
20260508103617 8 0.0 0.0 0.00 0.00 0.00 95 1016.2
20260508103117 8 0.0 0.0 0.00 0.00 0.00 95 1016.0
20260508102617 8 0.0 0.0 0.00 0.00 0.00 96 1016.0
20260508102117 8 0.0 0.0 0.00 0.00 0.00 96 1015.9
20260508101617 8 0.0 0.0 0.00 0.00 0.00 96 1015.9
20260508101157 8 0.0 0.0 0.00 0.00 0.00 97 1015.9
20260508100617 8 0.0 0.0 0.00 0.00 0.00 97 1015.8
20260508100117 8 0.0 0.0 0.00 0.00 0.00 96 1015.8
20260508095657 8 0.0 0.0 0.00 0.00 0.00 96 1015.8
20260508095137 8 0.0 0.0 0.00 0.00 0.00 96 1015.7
20260508094637 8 0.0 0.0 0.00 0.00 0.00 96 1015.7
20260508094137 8 0.0 0.0 0.00 0.00 0.00 96 1015.8
20260508093617 8 0.0 0.0 0.00 0.00 0.00 95 1015.9
20260508093117 8 0.0 0.0 0.00 0.00 0.00 95 1015.9
20260508092617 8 0.0 0.0 0.00 0.00 0.00 95 1015.9
20260508092117 8 0.0 0.0 0.00 0.00 0.00 95 1015.9
20260508091617 8 0.0 0.0 0.00 0.00 0.00 94 1015.9
20260508091137 8 0.0 0.0 0.00 0.00 0.00 94 1015.7
20260508090617 8 0.0 0.0 0.00 0.00 0.00 94 1015.8
20260508090117 8 0.0 0.0 0.00 0.00 0.00 94 1015.7
20260508085618 8 0.0 0.0 0.00 0.00 0.00 94 1015.7
20260508085158 8 0.0 0.0 0.00 0.00 0.00 94 1015.7
20260508084618 8 0.0 0.0 0.00 0.00 0.00 94 1015.6
20260508084117 8 0.0 0.0 0.00 0.00 0.00 94 1015.5
20260508083617 8 0.0 0.0 0.00 0.00 0.00 94 1015.6
20260508083137 8 0.0 0.0 0.00 0.00 0.00 94 1015.5
20260508082617 8 0.0 0.0 0.00 0.00 0.00 94 1015.5
20260508082117 8 0.0 0.0 0.00 0.00 0.00 93 1015.6
20260508081617 8 0.0 0.0 0.00 0.00 0.00 94 1015.4
20260508081200 8 0.0 0.0 0.00 0.00 0.00 94 1015.5
20260508080618 9 0.0 0.0 0.00 0.00 0.00 93 1015.4
20260508080117 9 0.0 0.0 0.00 0.00 0.00 93 1015.5
20260508075617 9 0.0 0.0 0.00 0.00 0.00 93 1015.6
20260508075117 9 0.0 0.0 0.00 0.00 0.00 93 1015.6
20260508074617 9 0.0 0.0 0.00 0.00 0.00 92 1015.6
20260508074117 9 0.0 0.0 0.00 0.00 0.00 91 1015.6
20260508073637 9 0.0 0.0 0.00 0.00 0.00 90 1015.7
20260508073117 10 0.0 0.0 0.00 0.00 0.00 90 1015.7
20260508072638 10 0.0 0.0 0.00 0.00 0.00 89 1015.7
20260508072118 10 0.0 0.0 0.00 0.00 0.00 89 1015.5
20260508071618 10 0.0 0.0 0.00 0.00 0.00 88 1015.5
20260508071137 10 0.0 0.0 0.00 0.00 0.00 88 1015.6
20260508070617 10 0.0 0.0 0.00 0.00 0.00 88 1015.7
20260508070137 10 0.0 0.0 0.00 0.00 0.00 88 1015.5
20260508065617 10 0.0 0.0 0.00 0.00 0.00 87 1015.5
20260508065117 10 0.0 0.0 0.00 0.00 0.00 87 1015.7
20260508064616 10 0.0 0.0 0.00 0.00 0.00 87 1015.6
20260508064118 10 0.0 0.0 0.00 0.00 0.00 86 1015.6
20260508063618 11 0.0 0.0 0.00 0.00 0.00 86 1015.7
20260508063117 11 0.0 0.0 0.00 0.00 0.00 86 1015.6
20260508062617 10 0.0 0.0 0.00 0.00 0.00 86 1015.6
20260508062117 10 0.0 0.0 0.00 0.00 0.00 86 1015.5
20260508061617 10 0.0 0.0 0.00 0.00 0.00 88 1015.6
20260508061117 10 0.0 0.0 0.00 0.00 0.00 88 1015.7
20260508060657 10 0.0 0.0 0.00 0.00 0.00 88 1015.6
20260508060117 10 0.0 0.0 0.00 0.00 0.00 87 1015.6
20260508055617 10 0.0 0.0 0.00 0.00 0.00 87 1015.7
20260508055117 10 0.0 0.0 0.00 0.00 0.00 87 1015.7
20260508054658 10 0.0 0.0 0.00 0.00 0.00 86 1015.7
20260508054117 10 0.0 0.0 0.00 0.00 0.00 86 1015.7
20260508053637 11 0.0 0.0 0.00 0.00 0.00 85 1015.7
20260508053137 11 0.0 0.0 0.00 0.00 0.00 84 1015.7
20260508052617 11 0.0 0.0 0.00 0.00 0.00 83 1015.6
20260508052117 11 0.0 0.0 0.00 0.00 0.00 84 1015.6